Location: Cuttings Wharf
(38.2266°N, 122.3089°W)
Time: 12:13:36
(UTC+00:00)

Daily predictions for brighter satellites

Satellite Brightness Start Highest point End
(mag) Time Altitude Azimuth Time Altitude Azimuth Time Altitude Azimuth
Cosmos 1825 Rocket 4.1 12:01:53 10° NNW 12:05:52 37° W 12:08:19 20° SSW
CZ-2C R/B 3.2 12:02:30 10° N 12:06:05 40° WNW 12:07:44 25° SW
ARIANE 5 R/B 3.8 12:02:02 10° NNW 12:06:17 26° WNW 12:08:34 19° WSW
MSX 3.9 12:01:25 10° N 12:07:06 59° WNW 12:11:53 15° SSW
USA 267 4.1 12:02:02 10° ESE 12:08:19 52° NE 12:14:38 10° NW
Cosmos 1745 Rocket 4.1 12:04:56 10° NNW 12:11:02 57° W 12:17:03 10° SSW
USA 102 4.3 12:05:47 10° S 12:11:38 46° WSW 12:14:16 15° NW
CZ-4B R/B 3.2 12:10:06 10° SE 12:13:02 33° ENE 12:15:56 10° N
Cosmos 1455 4.3 12:11:22 10° SSE 12:14:41 28° E 12:18:03 10° NNE
Landsat 5 3.5 12:12:07 10° S 12:15:56 51° W 12:19:55 10° NNW
Cosmos 1953 Rocket 3.9 12:12:01 10° NNW 12:16:17 45° W 12:20:31 10° SSW
Lacrosse 5 rocket 3.3 12:13:36 10° S 12:17:23 27° ESE 12:21:15 10° ENE
Cosmos 1300 3.2 12:15:09 19° SW 12:17:24 40° W 12:21:02 10° N
Cosmos 1900 4.4 12:16:54 10° NW 12:21:59 63° WSW 12:27:03 10° SSE
SeaSat 1 2.4 12:17:52 10° NNE 12:22:50 84° WNW 12:27:45 10° SSW
ADEOS Rocket 4.3 12:18:42 10° SSE 12:26:11 60° ENE 12:33:47 10° N
Cosmos 2058 4.0 12:23:32 10° N 12:27:36 48° E 12:31:38 10° SSE
Cosmos 494 Rocket 4.5 12:23:10 10° NW 12:27:52 36° W 12:32:36 10° SSW
ERS-2 2.5 12:25:32 10° S 12:28:57 39° W 12:32:24 10° NNW
Cosmos 1844 4.4 12:33:17 12° SW 12:38:20 39° WNW 12:43:45 10° N
TSX-5 3.8 12:39:46 10° SSW 12:42:53 56° ESE 12:46:00 10° NNE
SAR-Lupe-4 3.5 12:41:55 10° S 12:45:29 76° WSW 12:49:04 10° NNW
Cosmos 1689 Rocket 3.8 12:44:04 10° SE 12:46:46 37° ENE 12:49:29 10° N
CZ-2C R/B 2.7 12:44:30 10° N 12:48:51 42° WNW 12:53:16 10° SW
PSLV R/B 4.4 12:45:47 10° N 12:49:40 32° WNW 12:53:32 10° SW
Cosmos 1709 Rocket 4.2 12:45:07 10° NNW 12:51:00 49° W 12:56:49 10° SSW
ASTRO F (AKARI) 4.3 12:48:27 10° NNE 12:51:32 81° E 12:54:39 10° S
IDEFIX/ARIANE 42P 4.3 12:48:50 10° NNW 12:51:40 15° WNW 12:54:31 10° W
ADEOS 3.6 12:49:01 10° N 12:54:11 66° WNW 12:59:21 10° SSW
ATLAS 3B CENTAUR R/B 4.4 12:49:04 10° W 12:55:25 17° SW 12:59:37 10° S
